[[{"header":{"parameterUnit":"m.s-1","parameterCategory":1,"la1":30.2992,"la2":30.254,"lo1":-89.0895,"lo2":-89.0443,"dy":0.0025,"dx":0.0025,"nx":19,"ny":19,"refTime":"2026-05-17T21:00:00:Z","depth":0,"parameterNumber":2,"parameterNumberName":"U-component_of_WINDS"},"data":[0,0,0,-4.1253,-4.1257,-4.1405,-4.1406,-4.16,-4.1602,0,0,0,0,0,0,0,0,0,0,0,-4.1212,-4.1213,-4.1253,-4.1257,-4.1405,-4.1406,-4.16,-4.1602,0,0,0,0,0,0,0,0,0,0,0,-4.1211,-4.1213,-4.1215,-4.1257,-4.1405,-4.1406,-4.1599,-4.1486,0,0,0,0,0,0,0,0,0,0,-4.1341,-4.1305,-4.1213,-4.1215,-4.1258,-4.1405,-4.1406,-4.148,-4.1493,-4.1535,0,-4.1572,0,-4.159,-4.1615,-4.1616,0,0,0,-4.1255,-4.1295,-4.1332,-4.1215,-4.126,-4.1405,-4.1338,-4.1487,-4.1501,-4.1551,-4.1575,-4.1582,-4.1593,-4.1616,-4.1617,-4.1864,-4.1865,0,0,-4.1247,-4.124,-4.1322,-4.1342,-4.1319,-4.1333,-4.1342,-4.1496,-4.1521,-4.1576,-4.1587,-4.1597,-4.1618,-4.1619,-4.1863,-4.1865,0,0,0,-4.1225,-4.1235,-4.1268,-4.1334,-4.136,-4.1337,-4.1348,-4.1514,-4.1526,-4.1589,-4.1599,-4.1619,-4.1621,-4.1862,-4.1864,-4.1917,0,0,0,-4.122,-4.1222,-4.1265,-4.1262,-4.1358,-4.1439,-4.1363,-4.1515,-4.1533,-4.1598,-4.1619,-4.1623,-4.186,-4.1863,-4.1913,-4.1943,0,0,0,-4.1202,-4.1219,-4.1242,-4.1262,-4.1325,-4.1437,-4.1457,-4.1519,-4.1539,-4.1616,-4.1624,-4.186,-4.1862,-4.1909,-4.1937,-4.2005,0,0,0,-4.118,-4.1288,-4.1243,-4.1367,-4.1324,-4.147,-4.1456,-4.1565,-4.1637,-4.162,-4.1861,-4.1863,-4.1908,-4.1933,-4.2001,-4.2059,-4.2084,0,0,-4.1313,-4.1304,-4.1378,-4.1341,-4.1493,-4.1447,-4.1608,-4.168,-4.1694,-4.1807,-4.1813,-4.1914,-4.1936,-4.2004,-4.2227,-4.2246,0,0,0,-4.1418,-4.147,-4.1512,-4.158,-4.1639,-4.1691,-4.1739,-4.1767,-4.1862,-4.1751,-4.1959,-4.1972,-4.2012,-4.204,-4.2057,-4.2091,-4.1877,-4.1877,-4.1876,-4.1595,-4.1606,-4.1729,-4.1758,-4.1825,-4.1874,-4.1929,-4.1974,-4.1966,-4.2015,-4.2048,-4.2182,-4.2215,-4.2227,-4.2263,-4.2082,-4.2082,-4.2083,-4.2083,-4.1788,-4.1864,-4.1852,-4.1966,-4.1977,-4.2074,-4.2126,-4.2117,-4.2208,-4.2158,-4.2194,-4.2136,-4.2248,-4.2279,-4.2087,-4.2086,-4.2086,-4.2085,-4.2085,-4.1903,-4.1941,-4.1973,-4.2072,-4.2148,-4.2174,-4.2262,-4.227,-4.2279,-4.2314,-4.2349,-4.2348,-4.2346,-4.2331,-4.2331,-4.2332,-4.2332,-4.2332,-4.2333,-4.201,-4.2043,-4.2116,-4.2186,-4.2231,-4.2291,-4.2342,-4.2386,-4.2437,-4.2436,-4.2436,-4.2423,-4.2258,-4.2214,-4.234,-4.2338,-4.2338,-4.2337,-4.2336,-4.2198,-4.2156,-4.2268,-4.2313,-4.2396,-4.247,-4.248,-4.2569,-4.2607,-4.265,-4.263,-4.2507,-4.2499,-4.2486,-4.245,-4.2628,-4.2628,-4.2628,-4.2629,-4.2293,-4.229,-4.2406,-4.2476,-4.2547,-4.2567,-4.2693,-4.2734,-4.277,-4.2794,-4.277,-4.2724,-4.2711,-4.271,-4.2692,-4.2659,-4.2886,-4.2887,-4.2887,-4.2409,-4.2413,-4.2517,-4.2552,-4.2618,-4.2674,-4.2792,-4.2874,-4.2907,-4.2898,-4.2813,-4.2802,-4.2728,-4.2704,-4.269,-4.2662,-4.2601,0,0]},{"header":{"parameterUnit":"m.s-1","parameterCategory":1,"la1":30.2992,"la2":30.254,"lo1":-89.0895,"lo2":-89.0443,"dy":0.0025,"dx":0.0025,"nx":19,"ny":19,"refTime":"2026-05-17T21:00:00:Z","depth":0,"parameterNumber":3,"parameterNumberName":"V-component_of_WINDS"},"data":[0,0,0,3.0621,3.0622,3.0657,3.0657,3.0712,3.0713,0,0,0,0,0,0,0,0,0,0,0,3.0617,3.0617,3.0621,3.0622,3.0657,3.0657,3.0712,3.0713,0,0,0,0,0,0,0,0,0,0,0,3.0616,3.0617,3.0618,3.0622,3.0657,3.0657,3.0712,3.0682,0,0,0,0,0,0,0,0,0,0,3.0645,3.0648,3.0617,3.0618,3.0622,3.0657,3.0657,3.068,3.0684,3.0701,0,3.0718,0,3.0716,3.0717,3.0718,0,0,0,3.0617,3.0645,3.0649,3.0618,3.0623,3.0657,3.064,3.0682,3.0686,3.0705,3.0719,3.072,3.0717,3.0718,3.0718,3.0835,3.0836,0,0,3.0615,3.0626,3.0646,3.0652,3.0648,3.0639,3.0641,3.0684,3.0699,3.0719,3.0721,3.0718,3.0718,3.0719,3.0834,3.0835,0,0,0,3.0612,3.0625,3.0628,3.065,3.0656,3.064,3.0642,3.0697,3.0697,3.0722,3.0719,3.0719,3.0719,3.0833,3.0835,3.0885,0,0,0,3.0611,3.0623,3.0627,3.0634,3.0655,3.0677,3.0655,3.0694,3.0699,3.0719,3.0719,3.072,3.0833,3.0834,3.0882,3.0907,0,0,0,3.0612,3.0623,3.0631,3.0635,3.0651,3.0676,3.0678,3.0695,3.0697,3.0718,3.072,3.0832,3.0834,3.0879,3.0902,3.0942,0,0,0,3.0616,3.0674,3.0632,3.0696,3.065,3.0707,3.0678,3.0719,3.0743,3.0719,3.0833,3.0835,3.0878,3.0899,3.0939,3.0978,3.0995,0,0,3.0696,3.0684,3.0721,3.0684,3.0752,3.0701,3.0776,3.0786,3.0776,3.0816,3.0819,3.0883,3.0902,3.0941,3.1087,3.1101,0,0,0,3.075,3.0777,3.0792,3.0816,3.0826,3.0837,3.0835,3.0839,3.0872,3.0799,3.0907,3.0918,3.0941,3.0959,3.0971,3.099,3.0843,3.0843,3.0843,3.0879,3.0866,3.0926,3.0917,3.0941,3.0939,3.0957,3.0962,3.094,3.0966,3.0977,3.1067,3.1089,3.1098,3.1118,3.0996,3.0997,3.0997,3.0997,3.0995,3.1031,3.1003,3.1051,3.1037,3.1077,3.1078,3.1062,3.1097,3.1057,3.1076,3.1034,3.1113,3.113,3.1001,3.1,3.1,3.0999,3.0999,3.1078,3.1093,3.1098,3.1132,3.116,3.1149,3.1185,3.117,3.1156,3.1175,3.1186,3.1185,3.1183,3.1181,3.1182,3.1182,3.1182,3.1182,3.1183,3.1162,3.1166,3.1199,3.1216,3.123,3.1247,3.1247,3.126,3.127,3.1257,3.1257,3.1233,3.1124,3.1097,3.1187,3.1186,3.1186,3.1185,3.1185,3.1286,3.1256,3.1307,3.1321,3.134,3.137,3.135,3.1379,3.1388,3.1406,3.1379,3.13,3.1287,3.1277,3.1255,3.1381,3.1381,3.1381,3.1381,3.1356,3.1349,3.1398,3.1422,3.1444,3.1433,3.149,3.1491,3.1486,3.1491,3.1471,3.144,3.1431,3.1423,3.141,3.1389,3.1547,3.1547,3.1547,3.1432,3.1426,3.1478,3.1475,3.149,3.1502,3.1557,3.1585,3.1574,3.1553,3.1495,3.1488,3.1437,3.1422,3.14,3.1381,3.1341,0,0]}]]